TITAN 3C TRANSTAGE DEB, 5991

Orbit data source: Space-Track

TITAN 3C TRANSTAGE DEB, 5991 is space debris in HEO originally from a launch on Tue, 21 Dec 1965 UTC launched from the Air Force Eastern Test Range (AFETR). Debris objects in space refer to the collection of defunct objects orbiting the Earth. Examples of debris include non-operational satellites, rocket bodies, and fragments generated from explosions, collisions, or faulty payload assembly.

Loading next visibility...
Identifier
5991, 1965-108R
Orbit
HEO
Country
Flag of USUS
Related business
Manufacturer
Unknown
Mission
Spacecraft
Bus & Motor
Unknown
Mass
Unknown
Launch date (UTC)
1965-12-21 (61 years ago)
Launch vehicle
Unknown
Launch site
Air Force Eastern Test Range (AFETR)
Object type
Payload
Rocket body
Debris
Shape & HBR
Unknown shape, 0.2 m
Radar Cross Section
Medium (>0.1 m² and <1 m²)

Expand to show TLE details & history
Last TLE update: 1 week ago

TLE from 1 week ago
0 TITAN 3C TRANSTAGE DEB
1 05991U 65108R   26249.09185832 -.00000071  00000-0  00000-0 0  9992
2 05991  27.4377 237.5430 6581312 264.4213  73.2216  2.63641530119550
Epoch: 2026-09-06T02:12Z
TLE epoch observation values (Epoch: 2026-09-06T02:12:16.558Z)
Latitude
20.22182°
Longitude
-95.62962°
Altitude
20,477.721 km
Speed
3.417 km/s
True Right ascension
18h 50m 31s
True Declination
20° 11' 32"
Sunlit
Object was in daylight at epoch
Visualization orbit readout
Latitude
Unknown
Longitude
Unknown
Altitude
Unknown
Speed
Unknown
Apparent Right ascension
Unknown
Apparent Declination
Unknown
Sunlit
N/A
Visualization observer readout
Local Sidereal Time
16:04:42
Azimuth
Unknown
Elevation
Unknown
Doppler factor
Unknown
Orbital elements
Apogee altitude
30,328.179 km
Perigee altitude
1,189.867 km
Semi-major axis
22,137.16 km
Eccentricity
0.65813
Inclination
27.4377°
RAAN
237.543°
Arg. of periapsis
264.4213°
True anomaly
144.04376°
Mean anomaly
73.2216°
Eccentric anomaly
108.8973°
Mean motion
0.65896 °/min
Orbital period
546.31 mins
BSTAR
0
Loading maneuver chart data...
Computing Atmospheric mass density...

Documentation

Showing up to 5 results
|